Time,TemperatureF,DewpointF,PressureIn,WindDirection,WindDirectionDegrees,WindSpeedMPH,WindSpeedGustMPH,Humidity,HourlyPrecipIn,Conditions,Clouds,dailyrainin,SoftwareType,DateUTC
2013-11-23 00:01:00,23.4,18.5,30.63,NNE,23,0.0,0.0,81,0.00,,,0.00,WUHU216HW,2013-11-23 06:01:00,
2013-11-23 00:06:00,23.4,18.5,30.63,NNE,23,0.0,0.0,81,0.00,,,0.00,WUHU216HW,2013-11-23 06:06:00,
2013-11-23 00:11:00,23.4,18.5,30.64,NNE,23,0.0,0.0,81,0.00,,,0.00,WUHU216HW,2013-11-23 06:11:00,
2013-11-23 00:16:00,23.4,18.5,30.64,NNE,23,0.0,0.0,81,0.00,,,0.00,WUHU216HW,2013-11-23 06:16:00,
2013-11-23 00:21:00,23.4,18.2,30.63,NNE,23,0.0,0.0,80,0.00,,,0.00,WUHU216HW,2013-11-23 06:21:00,
2013-11-23 00:26:00,23.4,18.2,30.63,NNE,23,0.0,0.0,80,0.00,,,0.00,WUHU216HW,2013-11-23 06:26:00,
2013-11-23 00:31:00,23.6,18.4,30.63,NNE,23,0.0,0.0,80,0.00,,,0.00,WUHU216HW,2013-11-23 06:31:00,
2013-11-23 00:36:00,23.8,18.5,30.63,NNE,23,0.0,0.0,80,0.00,,,0.00,WUHU216HW,2013-11-23 06:36:00,
2013-11-23 00:41:00,23.8,18.5,30.62,NNE,23,0.0,0.0,80,0.00,,,0.00,WUHU216HW,2013-11-23 06:41:00,
2013-11-23 00:46:00,23.6,18.1,30.62,NNE,23,0.0,0.0,79,0.00,,,0.00,WUHU216HW,2013-11-23 06:46:00,
2013-11-23 00:51:00,23.4,17.9,30.62,NNE,23,0.0,0.0,79,0.00,,,0.00,WUHU216HW,2013-11-23 06:51:00,
2013-11-23 00:56:00,23.4,17.9,30.62,NNE,23,0.0,0.0,79,0.00,,,0.00,WUHU216HW,2013-11-23 06:56:00,
2013-11-23 01:01:00,23.4,17.9,30.62,NNE,23,0.0,0.0,79,0.00,,,0.00,WUHU216HW,2013-11-23 07:01:00,
2013-11-23 01:06:00,23.2,17.7,30.63,NNE,23,0.0,0.0,79,0.00,,,0.00,WUHU216HW,2013-11-23 07:06:00,
2013-11-23 01:11:00,23.0,17.6,30.63,NNE,23,0.0,0.0,79,0.00,,,0.00,WUHU216HW,2013-11-23 07:11:00,
2013-11-23 01:16:00,23.0,17.6,30.63,NNE,23,0.0,0.0,79,0.00,,,0.00,WUHU216HW,2013-11-23 07:16:00,
2013-11-23 01:21:00,23.2,18.0,30.63,NNE,23,0.0,0.0,80,0.00,,,0.00,WUHU216HW,2013-11-23 07:21:00,
2013-11-23 01:26:00,23.4,17.9,30.62,NNE,23,0.0,0.0,79,0.00,,,0.00,WUHU216HW,2013-11-23 07:26:00,
2013-11-23 01:31:00,23.4,17.9,30.62,NNE,23,0.0,0.0,79,0.00,,,0.00,WUHU216HW,2013-11-23 07:31:00,
2013-11-23 01:36:00,23.6,18.1,30.62,NNE,23,0.0,0.0,79,0.00,,,0.00,WUHU216HW,2013-11-23 07:36:00,
2013-11-23 01:41:00,23.8,18.3,30.61,NNE,23,0.0,0.0,79,0.00,,,0.00,WUHU216HW,2013-11-23 07:41:00,
2013-11-23 01:46:00,23.8,18.3,30.61,NNE,23,0.0,0.0,79,0.00,,,0.00,WUHU216HW,2013-11-23 07:46:00,
2013-11-23 01:51:00,23.8,17.9,30.61,NNE,23,0.0,0.0,78,0.00,,,0.00,WUHU216HW,2013-11-23 07:51:00,
2013-11-23 01:56:00,23.8,17.9,30.62,NNE,23,0.0,0.0,78,0.00,,,0.00,WUHU216HW,2013-11-23 07:56:00,
2013-11-23 02:01:00,23.8,17.9,30.62,NNE,23,0.0,0.0,78,0.00,,,0.00,WUHU216HW,2013-11-23 08:01:00,
2013-11-23 02:06:00,23.8,17.9,30.62,NNE,23,0.0,0.0,78,0.00,,,0.00,WUHU216HW,2013-11-23 08:06:00,
2013-11-23 02:11:00,23.9,18.4,30.62,NNE,23,0.0,0.0,79,0.00,,,0.00,WUHU216HW,2013-11-23 08:11:00,
2013-11-23 02:16:00,24.1,18.5,30.62,NNE,23,0.0,0.0,79,0.00,,,0.00,WUHU216HW,2013-11-23 08:16:00,
2013-11-23 02:21:00,24.1,18.5,30.62,NNE,23,0.0,0.0,79,0.00,,,0.00,WUHU216HW,2013-11-23 08:21:00,
2013-11-23 02:26:00,24.1,18.5,30.62,NNE,23,0.0,0.0,79,0.00,,,0.00,WUHU216HW,2013-11-23 08:26:00,
2013-11-23 02:31:00,24.1,18.5,30.63,NNE,23,0.0,0.0,79,0.00,,,0.00,WUHU216HW,2013-11-23 08:31:00,
2013-11-23 02:36:00,24.1,18.5,30.63,NNE,23,0.0,0.0,79,0.00,,,0.00,WUHU216HW,2013-11-23 08:36:00,
2013-11-23 02:41:00,24.1,18.5,30.63,NNE,23,0.0,0.0,79,0.00,,,0.00,WUHU216HW,2013-11-23 08:41:00,
2013-11-23 02:46:00,24.1,18.5,30.63,NNE,23,0.0,0.0,79,0.00,,,0.00,WUHU216HW,2013-11-23 08:46:00,
2013-11-23 02:51:00,23.9,18.4,30.63,NNE,23,0.0,0.0,79,0.00,,,0.00,WUHU216HW,2013-11-23 08:51:00,
2013-11-23 02:56:00,24.1,18.5,30.63,NNE,23,0.0,0.0,79,0.00,,,0.00,WUHU216HW,2013-11-23 08:56:00,
2013-11-23 03:01:00,24.1,18.5,30.63,NNE,23,0.0,0.0,79,0.00,,,0.00,WUHU216HW,2013-11-23 09:01:00,
2013-11-23 03:06:00,24.1,18.3,30.63,NNE,23,0.0,0.0,78,0.00,,,0.00,WUHU216HW,2013-11-23 09:06:00,
2013-11-23 03:11:00,24.1,17.9,30.63,NNE,23,0.0,0.0,77,0.00,,,0.00,WUHU216HW,2013-11-23 09:11:00,
2013-11-23 03:16:00,24.3,18.5,30.63,NNE,23,0.0,0.0,78,0.00,,,0.00,WUHU216HW,2013-11-23 09:16:00,
2013-11-23 03:21:00,24.5,18.3,30.62,NNE,23,0.0,0.0,77,0.00,,,0.00,WUHU216HW,2013-11-23 09:21:00,
2013-11-23 03:26:00,24.7,17.8,30.63,NNE,23,0.0,0.0,75,0.00,,,0.00,WUHU216HW,2013-11-23 09:26:00,
2013-11-23 03:31:00,24.8,18.0,30.63,NNE,23,0.0,0.0,75,0.00,,,0.00,WUHU216HW,2013-11-23 09:31:00,
2013-11-23 03:36:00,24.8,18.0,30.63,NNE,23,0.0,0.0,75,0.00,,,0.00,WUHU216HW,2013-11-23 09:36:00,
2013-11-23 03:41:00,24.8,18.0,30.64,NNE,23,0.0,0.0,75,0.00,,,0.00,WUHU216HW,2013-11-23 09:41:00,
2013-11-23 03:46:00,25.0,17.8,30.64,NNE,23,0.0,0.0,74,0.00,,,0.00,WUHU216HW,2013-11-23 09:46:00,
2013-11-23 03:51:00,24.8,17.6,30.65,NNE,23,0.0,0.0,74,0.00,,,0.00,WUHU216HW,2013-11-23 09:51:00,
2013-11-23 03:56:00,24.8,17.4,30.65,NNE,23,8.7,8.7,73,0.00,,,0.00,WUHU216HW,2013-11-23 09:56:00,
2013-11-23 04:01:00,24.7,17.2,30.65,NNE,23,7.6,8.9,73,0.00,,,0.00,WUHU216HW,2013-11-23 10:01:00,
2013-11-23 04:06:00,24.7,17.2,30.65,NNE,23,4.3,8.9,73,0.00,,,0.00,WUHU216HW,2013-11-23 10:06:00,
2013-11-23 04:11:00,24.5,17.0,30.65,NNE,23,9.2,9.2,73,0.00,,,0.00,WUHU216HW,2013-11-23 10:11:00,
2013-11-23 04:16:00,24.3,16.8,30.66,NNE,23,10.3,10.3,73,0.00,,,0.00,WUHU216HW,2013-11-23 10:16:00,
2013-11-23 04:21:00,24.3,16.8,30.65,NNE,23,6.5,10.3,73,0.00,,,0.00,WUHU216HW,2013-11-23 10:21:00,
2013-11-23 04:26:00,24.1,16.4,30.66,NNE,23,3.4,9.8,72,0.00,,,0.00,WUHU216HW,2013-11-23 10:26:00,
2013-11-23 04:31:00,24.3,16.8,30.66,NNE,23,4.3,9.8,73,0.00,,,0.00,WUHU216HW,2013-11-23 10:31:00,
2013-11-23 04:36:00,24.1,16.7,30.67,NNE,23,4.0,8.3,73,0.00,,,0.00,WUHU216HW,2013-11-23 10:36:00,
2013-11-23 04:41:00,24.1,16.7,30.67,NNE,23,2.5,6.3,73,0.00,,,0.00,WUHU216HW,2013-11-23 10:41:00,
2013-11-23 04:46:00,24.1,16.7,30.67,NNE,23,3.8,6.3,73,0.00,,,0.00,WUHU216HW,2013-11-23 10:46:00,
2013-11-23 04:51:00,24.1,17.0,30.67,NNE,23,3.6,5.4,74,0.00,,,0.00,WUHU216HW,2013-11-23 10:51:00,
2013-11-23 04:56:00,24.1,16.7,30.67,NNE,23,4.7,7.4,73,0.00,,,0.00,WUHU216HW,2013-11-23 10:56:00,
2013-11-23 05:01:00,23.9,16.5,30.67,NNE,23,4.9,7.4,73,0.00,,,0.00,WUHU216HW,2013-11-23 11:01:00,
2013-11-23 05:06:00,23.8,16.4,30.67,NNE,23,7.6,7.6,73,0.00,,,0.00,WUHU216HW,2013-11-23 11:06:00,
2013-11-23 05:11:00,23.6,15.8,30.67,NNE,23,4.0,7.6,72,0.00,,,0.00,WUHU216HW,2013-11-23 11:11:00,
2013-11-23 05:16:00,23.4,16.0,30.67,NNE,23,5.4,6.7,73,0.00,,,0.00,WUHU216HW,2013-11-23 11:16:00,
2013-11-23 05:21:00,23.2,15.8,30.67,NNE,23,2.0,6.5,73,0.00,,,0.00,WUHU216HW,2013-11-23 11:21:00,
2013-11-23 05:26:00,23.2,15.6,30.67,NNE,23,2.9,6.3,72,0.00,,,0.00,WUHU216HW,2013-11-23 11:26:00,
2013-11-23 05:31:00,23.0,15.4,30.68,NNE,23,8.5,8.5,72,0.00,,,0.00,WUHU216HW,2013-11-23 11:31:00,
2013-11-23 05:36:00,22.9,15.2,30.69,NNE,23,5.8,8.5,72,0.00,,,0.00,WUHU216HW,2013-11-23 11:36:00,
2013-11-23 05:41:00,22.7,15.0,30.69,NNE,23,2.9,6.9,72,0.00,,,0.00,WUHU216HW,2013-11-23 11:41:00,
2013-11-23 05:46:00,22.7,15.0,30.68,NNE,23,6.3,6.9,72,0.00,,,0.00,WUHU216HW,2013-11-23 11:46:00,
2013-11-23 05:51:00,22.7,15.0,30.69,NNE,23,8.9,8.9,72,0.00,,,0.00,WUHU216HW,2013-11-23 11:51:00,
2013-11-23 05:56:00,22.7,15.0,30.70,NNE,23,4.7,8.9,72,0.00,,,0.00,WUHU216HW,2013-11-23 11:56:00,
2013-11-23 06:01:00,22.7,15.0,30.69,NNE,23,3.4,5.6,72,0.00,,,0.00,WUHU216HW,2013-11-23 12:01:00,
2013-11-23 06:06:00,22.7,15.0,30.70,NNE,23,3.8,9.4,72,0.00,,,0.00,WUHU216HW,2013-11-23 12:06:00,
2013-11-23 06:11:00,22.7,15.0,30.70,NNE,23,3.6,9.4,72,0.00,,,0.00,WUHU216HW,2013-11-23 12:11:00,
2013-11-23 06:16:00,22.7,15.0,30.71,NNE,23,3.6,4.0,72,0.00,,,0.00,WUHU216HW,2013-11-23 12:16:00,
2013-11-23 06:21:00,22.7,15.3,30.71,NNE,23,2.5,3.6,73,0.00,,,0.00,WUHU216HW,2013-11-23 12:21:00,
2013-11-23 06:26:00,22.7,15.3,30.71,NNE,23,4.5,4.5,73,0.00,,,0.00,WUHU216HW,2013-11-23 12:26:00,
2013-11-23 06:31:00,22.7,15.3,30.71,NNE,23,5.4,5.4,73,0.00,,,0.00,WUHU216HW,2013-11-23 12:31:00,
2013-11-23 06:36:00,22.7,15.3,30.71,NNE,23,2.7,5.4,73,0.00,,,0.00,WUHU216HW,2013-11-23 12:36:00,
2013-11-23 06:41:00,22.7,15.0,30.71,NNE,23,4.9,4.9,72,0.00,,,0.00,WUHU216HW,2013-11-23 12:41:00,
2013-11-23 06:46:00,22.5,15.1,30.72,NNE,23,3.4,4.9,73,0.00,,,0.00,WUHU216HW,2013-11-23 12:46:00,
2013-11-23 06:51:00,22.5,15.1,30.72,NNE,23,1.8,6.7,73,0.00,,,0.00,WUHU216HW,2013-11-23 12:51:00,
2013-11-23 06:56:00,22.5,15.1,30.72,NNE,23,5.1,6.7,73,0.00,,,0.00,WUHU216HW,2013-11-23 12:56:00,
2013-11-23 07:01:00,22.5,15.1,30.73,NNE,23,4.9,6.7,73,0.00,,,0.00,WUHU216HW,2013-11-23 13:01:00,
2013-11-23 07:06:00,22.3,14.9,30.73,NNE,23,3.1,6.7,73,0.00,,,0.00,WUHU216HW,2013-11-23 13:06:00,
2013-11-23 07:11:00,22.3,14.9,30.73,NNE,23,2.2,6.3,73,0.00,,,0.00,WUHU216HW,2013-11-23 13:11:00,
2013-11-23 07:16:00,22.3,15.3,30.73,NNE,23,2.2,4.3,74,0.00,,,0.00,WUHU216HW,2013-11-23 13:16:00,
2013-11-23 07:21:00,22.5,15.5,30.74,NNE,23,3.4,4.3,74,0.00,,,0.00,WUHU216HW,2013-11-23 13:21:00,
2013-11-23 07:26:00,22.1,13.9,30.74,NNE,23,6.0,9.2,70,0.00,,,0.00,WUHU216HW,2013-11-23 13:26:00,
2013-11-23 07:31:00,22.0,13.3,30.74,NNE,23,3.4,11.6,69,0.00,,,0.00,WUHU216HW,2013-11-23 13:31:00,
2013-11-23 07:36:00,21.6,13.0,30.75,NNE,23,6.9,11.6,69,0.00,,,0.00,WUHU216HW,2013-11-23 13:36:00,
2013-11-23 07:41:00,21.6,13.0,30.75,NNE,23,4.0,6.9,69,0.00,,,0.00,WUHU216HW,2013-11-23 13:41:00,
2013-11-23 07:46:00,21.6,13.0,30.75,NNE,23,7.8,7.8,69,0.00,,,0.00,WUHU216HW,2013-11-23 13:46:00,
2013-11-23 07:51:00,21.6,12.6,30.76,NNE,23,5.1,7.8,68,0.00,,,0.00,WUHU216HW,2013-11-23 13:51:00,
2013-11-23 07:56:00,21.4,12.4,30.76,NNE,23,4.9,6.9,68,0.00,,,0.00,WUHU216HW,2013-11-23 13:56:00,
2013-11-23 08:01:00,21.2,12.6,30.76,NNE,23,0.2,11.2,69,0.00,,,0.00,WUHU216HW,2013-11-23 14:01:00,
2013-11-23 08:06:00,21.6,13.3,30.76,NNE,23,3.1,11.2,70,0.00,,,0.00,WUHU216HW,2013-11-23 14:06:00,
2013-11-23 08:11:00,21.6,13.3,30.76,NNE,23,1.6,3.6,70,0.00,,,0.00,WUHU216HW,2013-11-23 14:11:00,
2013-11-23 08:16:00,21.8,13.8,30.77,NNE,23,4.5,4.9,71,0.00,,,0.00,WUHU216HW,2013-11-23 14:16:00,
2013-11-23 08:21:00,21.8,14.1,30.77,NNE,23,3.4,4.9,72,0.00,,,0.00,WUHU216HW,2013-11-23 14:21:00,
2013-11-23 08:26:00,22.0,14.3,30.77,NNE,23,4.7,4.7,72,0.00,,,0.00,WUHU216HW,2013-11-23 14:26:00,
2013-11-23 08:31:00,22.0,14.0,30.77,NNE,23,8.7,8.7,71,0.00,,,0.00,WUHU216HW,2013-11-23 14:31:00,
2013-11-23 08:36:00,22.0,13.3,30.78,NNE,23,8.5,8.7,69,0.00,,,0.00,WUHU216HW,2013-11-23 14:36:00,
2013-11-23 08:41:00,21.8,12.8,30.77,NNE,23,5.4,8.5,68,0.00,,,0.00,WUHU216HW,2013-11-23 14:41:00,
2013-11-23 08:46:00,21.8,12.2,30.78,NNE,23,5.4,6.7,66,0.00,,,0.00,WUHU216HW,2013-11-23 14:46:00,
2013-11-23 08:51:00,22.0,12.0,30.78,NNE,23,5.1,10.5,65,0.00,,,0.00,WUHU216HW,2013-11-23 14:51:00,
2013-11-23 08:56:00,21.8,11.1,30.78,NNE,23,7.8,10.5,63,0.00,,,0.00,WUHU216HW,2013-11-23 14:56:00,
2013-11-23 09:01:00,21.8,11.8,30.78,NNE,23,6.9,9.2,65,0.00,,,0.00,WUHU216HW,2013-11-23 15:01:00,
2013-11-23 09:06:00,22.1,11.8,30.78,NNE,23,1.1,6.9,64,0.00,,,0.00,WUHU216HW,2013-11-23 15:06:00,
2013-11-23 09:11:00,22.9,11.7,30.78,NNE,23,8.7,9.6,62,0.00,,,0.00,WUHU216HW,2013-11-23 15:11:00,
2013-11-23 09:16:00,22.5,10.7,30.78,NNE,23,6.9,9.6,60,0.00,,,0.00,WUHU216HW,2013-11-23 15:16:00,
2013-11-23 09:21:00,22.1,9.1,30.78,NNE,23,7.2,15.0,57,0.00,,,0.00,WUHU216HW,2013-11-23 15:21:00,
2013-11-23 09:26:00,22.0,9.8,30.78,NNE,23,7.2,15.0,59,0.00,,,0.00,WUHU216HW,2013-11-23 15:26:00,
2013-11-23 09:31:00,22.5,10.7,30.79,NNE,23,2.0,8.5,60,0.00,,,0.00,WUHU216HW,2013-11-23 15:31:00,
2013-11-23 09:36:00,23.0,11.2,30.79,NNE,23,8.7,8.7,60,0.00,,,0.00,WUHU216HW,2013-11-23 15:36:00,
2013-11-23 09:41:00,23.4,11.5,30.79,NNE,23,5.4,8.7,60,0.00,,,0.00,WUHU216HW,2013-11-23 15:41:00,
2013-11-23 09:46:00,24.1,11.8,30.79,NNE,23,6.9,7.4,59,0.00,,,0.00,WUHU216HW,2013-11-23 15:46:00,
2013-11-23 09:51:00,24.8,12.5,30.80,NNE,23,5.4,6.9,59,0.00,,,0.00,WUHU216HW,2013-11-23 15:51:00,
2013-11-23 09:56:00,25.6,12.0,30.80,NNE,23,6.0,11.6,56,0.00,,,0.00,WUHU216HW,2013-11-23 15:56:00,
2013-11-23 10:01:00,26.6,13.8,30.80,NNE,23,4.9,11.6,58,0.00,,,0.00,WUHU216HW,2013-11-23 16:01:00,
2013-11-23 10:06:00,27.2,12.6,30.80,NNE,23,4.3,11.2,54,0.00,,,0.00,WUHU216HW,2013-11-23 16:06:00,
2013-11-23 10:11:00,27.4,12.0,30.80,NNE,23,5.1,11.2,52,0.00,,,0.00,WUHU216HW,2013-11-23 16:11:00,
2013-11-23 10:16:00,28.1,12.3,30.80,NNE,23,5.6,8.7,51,0.00,,,0.00,WUHU216HW,2013-11-23 16:16:00,
2013-11-23 10:21:00,29.3,14.3,30.80,NNE,23,4.7,7.6,53,0.00,,,0.00,WUHU216HW,2013-11-23 16:21:00,
2013-11-23 10:26:00,29.5,13.6,30.81,NNE,23,2.9,7.4,51,0.00,,,0.00,WUHU216HW,2013-11-23 16:26:00,
2013-11-23 10:31:00,29.9,14.4,30.81,NNE,23,3.4,6.9,52,0.00,,,0.00,WUHU216HW,2013-11-23 16:31:00,
2013-11-23 10:36:00,30.6,14.2,30.81,NNE,23,7.4,9.2,50,0.00,,,0.00,WUHU216HW,2013-11-23 16:36:00,
2013-11-23 10:41:00,30.6,14.2,30.80,NNE,23,5.4,9.2,50,0.00,,,0.00,WUHU216HW,2013-11-23 16:41:00,
2013-11-23 10:46:00,31.1,15.5,30.80,NNE,23,7.8,7.8,52,0.00,,,0.00,WUHU216HW,2013-11-23 16:46:00,
2013-11-23 10:51:00,31.3,14.3,30.80,NNE,23,8.5,8.7,49,0.00,,,0.00,WUHU216HW,2013-11-23 16:51:00,
2013-11-23 10:56:00,30.8,13.3,30.80,NNE,23,8.9,9.8,48,0.00,,,0.00,WUHU216HW,2013-11-23 16:56:00,
2013-11-23 11:01:00,30.4,13.5,30.80,NNE,23,5.4,9.8,49,0.00,,,0.00,WUHU216HW,2013-11-23 17:01:00,
2013-11-23 11:06:00,29.7,12.9,30.80,NNE,23,11.2,11.2,49,0.00,,,0.00,WUHU216HW,2013-11-23 17:06:00,
2013-11-23 11:11:00,28.8,11.5,30.80,NNE,23,3.8,11.2,48,0.00,,,0.00,WUHU216HW,2013-11-23 17:11:00,
2013-11-23 11:16:00,29.2,11.9,30.80,NNE,23,8.3,10.7,48,0.00,,,0.00,WUHU216HW,2013-11-23 17:16:00,
2013-11-23 11:21:00,29.5,12.7,30.80,NNE,23,4.7,10.7,49,0.00,,,0.00,WUHU216HW,2013-11-23 17:21:00,
2013-11-23 11:26:00,30.1,13.2,30.80,NNE,23,4.9,10.3,49,0.00,,,0.00,WUHU216HW,2013-11-23 17:26:00,
2013-11-23 11:31:00,30.6,12.2,30.80,NNE,23,7.6,10.3,46,0.00,,,0.00,WUHU216HW,2013-11-23 17:31:00,
2013-11-23 11:36:00,31.0,12.5,30.79,NNE,23,4.5,9.2,46,0.00,,,0.00,WUHU216HW,2013-11-23 17:36:00,
2013-11-23 11:41:00,31.1,12.7,30.79,NNE,23,7.6,8.9,46,0.00,,,0.00,WUHU216HW,2013-11-23 17:41:00,
2013-11-23 11:46:00,31.7,13.1,30.79,NNE,23,3.8,8.7,46,0.00,,,0.00,WUHU216HW,2013-11-23 17:46:00,
2013-11-23 11:51:00,32.8,14.6,30.79,NNE,23,6.3,9.8,47,0.00,,,0.00,WUHU216HW,2013-11-23 17:51:00,
2013-11-23 11:56:00,33.5,14.2,30.79,NNE,23,4.5,10.1,45,0.00,,,0.00,WUHU216HW,2013-11-23 17:56:00,
2013-11-23 12:01:00,33.1,13.0,30.79,NNE,23,6.5,10.1,43,0.00,,,0.00,WUHU216HW,2013-11-23 18:01:00,
2013-11-23 12:06:00,33.1,14.0,30.79,NNE,23,6.0,9.2,45,0.00,,,0.00,WUHU216HW,2013-11-23 18:06:00,
2013-11-23 12:11:00,32.8,13.2,30.80,NNE,23,5.6,9.2,44,0.00,,,0.00,WUHU216HW,2013-11-23 18:11:00,
2013-11-23 12:16:00,32.9,12.2,30.80,NNE,23,8.5,9.8,42,0.00,,,0.00,WUHU216HW,2013-11-23 18:16:00,
2013-11-23 12:21:00,32.6,13.4,30.80,NNE,23,5.8,9.8,45,0.00,,,0.00,WUHU216HW,2013-11-23 18:21:00,
2013-11-23 12:26:00,32.4,14.3,30.80,NNE,23,4.0,9.8,47,0.00,,,0.00,WUHU216HW,2013-11-23 18:26:00,
2013-11-23 12:31:00,33.5,13.8,30.79,NNE,23,7.4,9.8,44,0.00,,,0.00,WUHU216HW,2013-11-23 18:31:00,
2013-11-23 12:36:00,32.8,12.6,30.79,NNE,23,6.3,11.4,43,0.00,,,0.00,WUHU216HW,2013-11-23 18:36:00,
2013-11-23 12:41:00,32.9,12.8,30.80,NNE,23,6.0,11.4,43,0.00,,,0.00,WUHU216HW,2013-11-23 18:41:00,
2013-11-23 12:46:00,33.1,14.0,30.79,NNE,23,4.9,6.3,45,0.00,,,0.00,WUHU216HW,2013-11-23 18:46:00,
2013-11-23 12:51:00,32.9,13.2,30.79,NNE,23,4.9,6.9,44,0.00,,,0.00,WUHU216HW,2013-11-23 18:51:00,
2013-11-23 12:56:00,31.7,12.2,30.79,NNE,23,4.0,11.0,44,0.00,,,0.00,WUHU216HW,2013-11-23 18:56:00,
2013-11-23 13:01:00,31.3,12.8,30.79,NNE,23,6.3,11.0,46,0.00,,,0.00,WUHU216HW,2013-11-23 19:01:00,
2013-11-23 13:06:00,31.0,12.0,30.79,NNE,23,8.5,11.4,45,0.00,,,0.00,WUHU216HW,2013-11-23 19:06:00,
2013-11-23 13:11:00,30.1,12.2,30.78,NNE,23,7.6,11.4,47,0.00,,,0.00,WUHU216HW,2013-11-23 19:11:00,
2013-11-23 13:16:00,30.1,12.7,30.78,NNE,23,7.6,7.6,48,0.00,,,0.00,WUHU216HW,2013-11-23 19:16:00,
2013-11-23 13:21:00,29.9,12.1,30.78,NNE,23,3.6,11.6,47,0.00,,,0.00,WUHU216HW,2013-11-23 19:21:00,
2013-11-23 13:26:00,29.5,12.3,30.78,NNE,23,4.7,11.6,48,0.00,,,0.00,WUHU216HW,2013-11-23 19:26:00,
2013-11-23 13:31:00,29.2,11.3,30.78,NNE,23,6.3,8.7,47,0.00,,,0.00,WUHU216HW,2013-11-23 19:31:00,
2013-11-23 13:36:00,29.2,11.9,30.78,NNE,23,4.3,9.2,48,0.00,,,0.00,WUHU216HW,2013-11-23 19:36:00,
2013-11-23 13:41:00,29.0,11.7,30.78,NNE,23,11.0,11.0,48,0.00,,,0.00,WUHU216HW,2013-11-23 19:41:00,
2013-11-23 13:46:00,29.2,12.9,30.78,NNE,23,5.4,11.0,50,0.00,,,0.00,WUHU216HW,2013-11-23 19:46:00,
2013-11-23 13:51:00,29.7,13.4,30.78,NNE,23,6.5,11.2,50,0.00,,,0.00,WUHU216HW,2013-11-23 19:51:00,
2013-11-23 13:56:00,30.2,13.9,30.78,NNE,23,4.3,11.2,50,0.00,,,0.00,WUHU216HW,2013-11-23 19:56:00,
2013-11-23 14:01:00,30.6,13.1,30.78,NNE,23,5.6,9.8,48,0.00,,,0.00,WUHU216HW,2013-11-23 20:01:00,
2013-11-23 14:06:00,31.1,13.1,30.78,NNE,23,7.2,7.2,47,0.00,,,0.00,WUHU216HW,2013-11-23 20:06:00,
2013-11-23 14:11:00,31.0,13.0,30.78,NNE,23,3.8,9.4,47,0.00,,,0.00,WUHU216HW,2013-11-23 20:11:00,
2013-11-23 14:16:00,31.0,12.5,30.78,NNE,23,4.9,9.4,46,0.00,,,0.00,WUHU216HW,2013-11-23 20:16:00,
2013-11-23 14:21:00,31.5,13.0,30.78,NNE,23,7.4,7.4,46,0.00,,,0.00,WUHU216HW,2013-11-23 20:21:00,
2013-11-23 14:26:00,31.9,13.3,30.78,NNE,23,8.7,8.7,46,0.00,,,0.00,WUHU216HW,2013-11-23 20:26:00,
2013-11-23 14:31:00,32.0,14.0,30.78,NNE,23,2.7,8.7,47,0.00,,,0.00,WUHU216HW,2013-11-23 20:31:00,
2013-11-23 14:36:00,32.8,13.6,30.78,NNE,23,2.5,7.2,45,0.00,,,0.00,WUHU216HW,2013-11-23 20:36:00,
2013-11-23 14:41:00,32.6,13.0,30.79,NNE,23,8.7,13.4,44,0.00,,,0.00,WUHU216HW,2013-11-23 20:41:00,
2013-11-23 14:46:00,32.0,12.4,30.78,NNE,23,5.4,13.4,44,0.00,,,0.00,WUHU216HW,2013-11-23 20:46:00,
2013-11-23 14:51:00,32.8,13.6,30.78,NNE,23,7.6,9.2,45,0.00,,,0.00,WUHU216HW,2013-11-23 20:51:00,
2013-11-23 14:56:00,33.3,13.1,30.78,NNE,23,6.0,11.9,43,0.00,,,0.00,WUHU216HW,2013-11-23 20:56:00,
2013-11-23 15:01:00,32.9,12.8,30.79,NNE,23,9.2,11.9,43,0.00,,,0.00,WUHU216HW,2013-11-23 21:01:00,
2013-11-23 15:06:00,33.1,13.0,30.79,NNE,23,5.4,10.7,43,0.00,,,0.00,WUHU216HW,2013-11-23 21:06:00,
2013-11-23 15:11:00,33.3,13.1,30.79,NNE,23,7.4,10.7,43,0.00,,,0.00,WUHU216HW,2013-11-23 21:11:00,
2013-11-23 15:16:00,33.1,11.9,30.78,NNE,23,6.5,8.9,41,0.00,,,0.00,WUHU216HW,2013-11-23 21:16:00,
2013-11-23 15:21:00,33.1,12.4,30.79,NNE,23,2.5,9.2,42,0.00,,,0.00,WUHU216HW,2013-11-23 21:21:00,
2013-11-23 15:26:00,33.3,12.1,30.79,NNE,23,2.2,9.2,41,0.00,,,0.00,WUHU216HW,2013-11-23 21:26:00,
2013-11-23 15:31:00,32.6,12.0,30.79,NNE,23,6.0,8.7,42,0.00,,,0.00,WUHU216HW,2013-11-23 21:31:00,
2013-11-23 15:36:00,31.7,11.2,30.79,NNE,23,4.9,8.7,42,0.00,,,0.00,WUHU216HW,2013-11-23 21:36:00,
2013-11-23 15:41:00,30.8,10.8,30.79,NNE,23,3.1,6.3,43,0.00,,,0.00,WUHU216HW,2013-11-23 21:41:00,
2013-11-23 15:46:00,30.6,11.2,30.79,NNE,23,4.0,6.9,44,0.00,,,0.00,WUHU216HW,2013-11-23 21:46:00,
2013-11-23 15:51:00,31.1,12.2,30.79,NNE,23,4.0,8.5,45,0.00,,,0.00,WUHU216HW,2013-11-23 21:51:00,
2013-11-23 15:56:00,31.5,12.0,30.79,NNE,23,5.4,9.6,44,0.00,,,0.00,WUHU216HW,2013-11-23 21:56:00,
2013-11-23 16:01:00,31.0,11.5,30.79,NNE,23,6.5,9.6,44,0.00,,,0.00,WUHU216HW,2013-11-23 22:01:00,
2013-11-23 16:06:00,30.2,10.8,30.79,NNE,23,6.0,6.5,44,0.00,,,0.00,WUHU216HW,2013-11-23 22:06:00,
2013-11-23 16:11:00,29.3,10.5,30.79,NNE,23,5.8,6.3,45,0.00,,,0.00,WUHU216HW,2013-11-23 22:11:00,
2013-11-23 16:16:00,28.4,10.3,30.79,NNE,23,4.3,7.2,46,0.00,,,0.00,WUHU216HW,2013-11-23 22:16:00,
2013-11-23 16:21:00,27.7,10.5,30.79,NNE,23,4.7,7.2,48,0.00,,,0.00,WUHU216HW,2013-11-23 22:21:00,
2013-11-23 16:26:00,27.4,10.2,30.79,NNE,23,4.9,5.6,48,0.00,,,0.00,WUHU216HW,2013-11-23 22:26:00,
2013-11-23 16:31:00,27.0,9.8,30.78,NNE,23,1.8,4.9,48,0.00,,,0.00,WUHU216HW,2013-11-23 22:31:00,
2013-11-23 16:36:00,26.3,9.6,30.78,NNE,23,2.9,4.5,49,0.00,,,0.00,WUHU216HW,2013-11-23 22:36:00,
2013-11-23 16:41:00,25.7,9.6,30.78,NNE,23,4.7,4.7,50,0.00,,,0.00,WUHU216HW,2013-11-23 22:41:00,
2013-11-23 16:46:00,25.4,9.7,30.78,NNE,23,3.4,6.3,51,0.00,,,0.00,WUHU216HW,2013-11-23 22:46:00,
2013-11-23 16:51:00,24.7,9.5,30.79,NNE,23,2.5,6.3,52,0.00,,,0.00,WUHU216HW,2013-11-23 22:51:00,
2013-11-23 16:56:00,24.3,9.2,30.78,NNE,23,2.0,4.5,52,0.00,,,0.00,WUHU216HW,2013-11-23 22:56:00,
2013-11-23 17:01:00,23.8,9.1,30.78,NNE,23,4.7,6.7,53,0.00,,,0.00,WUHU216HW,2013-11-23 23:01:00,
2013-11-23 17:06:00,23.4,9.1,30.78,NNE,23,1.1,6.7,54,0.00,,,0.00,WUHU216HW,2013-11-23 23:06:00,
2013-11-23 17:09:00,23.0,8.8,30.79,NNE,23,2.9,4.7,54,0.00,,,0.00,WUHU216HW,2013-11-23 23:09:00,
2013-11-23 17:14:00,22.9,9.0,30.78,NNE,23,3.6,4.0,55,0.00,,,0.00,WUHU216HW,2013-11-23 23:14:00,
2013-11-23 17:19:00,22.7,8.8,30.78,NNE,23,0.4,4.7,55,0.00,,,0.00,WUHU216HW,2013-11-23 23:19:00,
2013-11-23 17:24:00,22.5,8.6,30.78,NNE,23,2.2,5.1,55,0.00,,,0.00,WUHU216HW,2013-11-23 23:24:00,
2013-11-23 17:30:00,22.5,8.6,30.78,NNE,23,3.4,3.4,55,0.00,,,0.00,WUHU216HW,2013-11-23 23:30:00,
2013-11-23 17:34:00,22.1,8.4,30.79,NNE,23,2.7,4.7,55,0.00,,,0.00,WUHU216HW,2013-11-23 23:34:00,
2013-11-23 17:40:00,22.0,8.2,30.79,NNE,23,3.8,4.7,55,0.00,,,0.00,WUHU216HW,2013-11-23 23:40:00,
2013-11-23 17:45:00,22.0,8.6,30.79,NNE,23,4.7,4.7,56,0.00,,,0.00,WUHU216HW,2013-11-23 23:45:00,
2013-11-23 17:50:00,22.0,8.2,30.79,NNE,23,0.9,4.7,55,0.00,,,0.00,WUHU216HW,2013-11-23 23:50:00,
2013-11-23 17:55:00,21.8,8.4,30.79,NNE,23,1.1,2.0,56,0.00,,,0.00,WUHU216HW,2013-11-23 23:55:00,
2013-11-23 18:00:00,21.6,8.2,30.79,NNE,23,1.8,2.7,56,0.00,,,0.00,WUHU216HW,2013-11-24 00:00:00,
2013-11-23 18:04:00,21.6,8.2,30.79,NNE,23,0.9,2.7,56,0.00,,,0.00,WUHU216HW,2013-11-24 00:04:00,
2013-11-23 18:09:00,21.4,8.0,30.78,NNE,23,0.4,1.8,56,0.00,,,0.00,WUHU216HW,2013-11-24 00:09:00,
2013-11-23 18:15:00,21.2,7.9,30.79,NNE,23,0.9,3.1,56,0.00,,,0.00,WUHU216HW,2013-11-24 00:15:00,
2013-11-23 18:20:00,21.2,8.3,30.79,NNE,23,1.8,3.1,57,0.00,,,0.00,WUHU216HW,2013-11-24 00:20:00,
2013-11-23 18:25:00,21.2,8.3,30.79,NNE,23,0.9,2.0,57,0.00,,,0.00,WUHU216HW,2013-11-24 00:25:00,
2013-11-23 18:30:00,21.1,8.6,30.79,NNE,23,2.0,2.0,58,0.00,,,0.00,WUHU216HW,2013-11-24 00:30:00,
2013-11-23 18:35:00,20.9,8.4,30.79,NNE,23,1.3,2.0,58,0.00,,,0.00,WUHU216HW,2013-11-24 00:35:00,
2013-11-23 18:40:00,20.9,8.4,30.79,NNE,23,0.9,1.3,58,0.00,,,0.00,WUHU216HW,2013-11-24 00:40:00,
2013-11-23 18:45:00,20.9,8.4,30.79,NNE,23,2.5,2.5,58,0.00,,,0.00,WUHU216HW,2013-11-24 00:45:00,
2013-11-23 18:50:00,20.5,8.0,30.79,NNE,23,4.0,4.0,58,0.00,,,0.00,WUHU216HW,2013-11-24 00:50:00,
2013-11-23 18:55:00,20.3,8.3,30.78,NNE,23,2.5,4.5,59,0.00,,,0.00,WUHU216HW,2013-11-24 00:55:00,
2013-11-23 19:00:00,20.2,8.1,30.79,NNE,23,3.1,4.5,59,0.00,,,0.00,WUHU216HW,2013-11-24 01:00:00,
2013-11-23 19:05:00,20.0,7.9,30.78,NNE,23,2.2,4.3,59,0.00,,,0.00,WUHU216HW,2013-11-24 01:05:00,
2013-11-23 19:10:00,20.0,8.3,30.78,NNE,23,0.9,4.3,60,0.00,,,0.00,WUHU216HW,2013-11-24 01:10:00,
2013-11-23 19:15:00,19.8,8.1,30.79,NNE,23,2.5,4.0,60,0.00,,,0.00,WUHU216HW,2013-11-24 01:15:00,
2013-11-23 19:20:00,19.8,8.1,30.78,NNE,23,2.2,4.0,60,0.00,,,0.00,WUHU216HW,2013-11-24 01:20:00,
2013-11-23 19:25:00,19.6,8.3,30.79,NNE,23,2.0,4.7,61,0.00,,,0.00,WUHU216HW,2013-11-24 01:25:00,
2013-11-23 19:30:00,19.3,7.9,30.78,NNE,23,2.5,4.7,61,0.00,,,0.00,WUHU216HW,2013-11-24 01:30:00,
2013-11-23 19:35:00,19.1,7.7,30.79,NNE,23,1.8,4.3,61,0.00,,,0.00,WUHU216HW,2013-11-24 01:35:00,
2013-11-23 19:40:00,19.1,7.7,30.79,NNE,23,0.4,4.3,61,0.00,,,0.00,WUHU216HW,2013-11-24 01:40:00,
2013-11-23 19:45:00,19.1,7.7,30.79,NNE,23,1.1,3.4,61,0.00,,,0.00,WUHU216HW,2013-11-24 01:45:00,
2013-11-23 19:50:00,19.1,7.7,30.79,NNE,23,2.7,3.4,61,0.00,,,0.00,WUHU216HW,2013-11-24 01:50:00,
2013-11-23 19:55:00,19.1,7.7,30.79,NNE,23,4.0,4.0,61,0.00,,,0.00,WUHU216HW,2013-11-24 01:55:00,
2013-11-23 20:00:00,18.9,7.6,30.79,NNE,23,0.2,4.0,61,0.00,,,0.00,WUHU216HW,2013-11-24 02:00:00,
2013-11-23 20:05:00,18.7,7.5,30.79,NNE,23,2.5,4.0,61,0.00,,,0.00,WUHU216HW,2013-11-24 02:05:00,
2013-11-23 20:10:00,18.5,7.3,30.79,NNE,23,1.3,4.0,61,0.00,,,0.00,WUHU216HW,2013-11-24 02:10:00,
2013-11-23 20:15:00,18.5,7.3,30.79,NNE,23,0.7,2.5,61,0.00,,,0.00,WUHU216HW,2013-11-24 02:15:00,
2013-11-23 20:20:00,18.4,7.1,30.79,NNE,23,1.1,2.9,61,0.00,,,0.00,WUHU216HW,2013-11-24 02:20:00,
2013-11-23 20:25:00,18.4,7.1,30.79,NNE,23,4.0,4.0,61,0.00,,,0.00,WUHU216HW,2013-11-24 02:25:00,
2013-11-23 20:30:00,18.0,6.8,30.79,NNE,23,3.4,4.0,61,0.00,,,0.00,WUHU216HW,2013-11-24 02:30:00,
2013-11-23 20:35:00,17.8,6.9,30.79,NNE,23,5.6,5.6,62,0.00,,,0.00,WUHU216HW,2013-11-24 02:35:00,
2013-11-23 20:40:00,17.6,7.1,30.78,NNE,23,2.2,5.6,63,0.00,,,0.00,WUHU216HW,2013-11-24 02:40:00,
2013-11-23 20:45:00,17.5,7.3,30.78,NNE,23,2.5,4.5,64,0.00,,,0.00,WUHU216HW,2013-11-24 02:45:00,
2013-11-23 20:50:00,17.1,6.9,30.78,NNE,23,2.5,4.3,64,0.00,,,0.00,WUHU216HW,2013-11-24 02:50:00,
2013-11-23 20:55:00,17.1,6.9,30.78,NNE,23,2.9,5.1,64,0.00,,,0.00,WUHU216HW,2013-11-24 02:55:00,
2013-11-23 21:00:00,16.9,7.1,30.78,NNE,23,1.6,5.1,65,0.00,,,0.00,WUHU216HW,2013-11-24 03:00:00,
2013-11-23 21:05:00,16.9,6.8,30.78,NNE,23,1.6,3.8,64,0.00,,,0.00,WUHU216HW,2013-11-24 03:05:00,
2013-11-23 21:10:00,16.9,6.8,30.78,NNE,23,6.0,6.0,64,0.00,,,0.00,WUHU216HW,2013-11-24 03:10:00,
2013-11-23 21:15:00,16.9,6.8,30.78,NNE,23,4.7,6.0,64,0.00,,,0.00,WUHU216HW,2013-11-24 03:15:00,
2013-11-23 21:20:00,16.9,7.1,30.78,NNE,23,3.4,4.7,65,0.00,,,0.00,WUHU216HW,2013-11-24 03:20:00,
2013-11-23 21:25:00,16.7,6.9,30.78,NNE,23,5.6,6.5,65,0.00,,,0.00,WUHU216HW,2013-11-24 03:25:00,
2013-11-23 21:30:00,16.6,6.8,30.78,NNE,23,1.8,6.5,65,0.00,,,0.00,WUHU216HW,2013-11-24 03:30:00,
2013-11-23 21:35:00,16.6,6.8,30.78,NNE,23,2.5,6.3,65,0.00,,,0.00,WUHU216HW,2013-11-24 03:35:00,
2013-11-23 21:40:00,16.6,6.8,30.77,NNE,23,3.6,5.8,65,0.00,,,0.00,WUHU216HW,2013-11-24 03:40:00,
2013-11-23 21:45:00,16.4,6.6,30.77,NNE,23,3.8,5.8,65,0.00,,,0.00,WUHU216HW,2013-11-24 03:45:00,
2013-11-23 21:50:00,16.4,6.9,30.77,NNE,23,2.9,4.7,66,0.00,,,0.00,WUHU216HW,2013-11-24 03:50:00,
2013-11-23 21:55:00,16.4,6.9,30.77,NNE,23,4.0,4.7,66,0.00,,,0.00,WUHU216HW,2013-11-24 03:55:00,
2013-11-23 22:00:00,16.4,6.9,30.77,NNE,23,4.7,4.7,66,0.00,,,0.00,WUHU216HW,2013-11-24 04:00:00,
2013-11-23 22:05:00,16.4,6.9,30.77,NNE,23,3.4,4.7,66,0.00,,,0.00,WUHU216HW,2013-11-24 04:05:00,
2013-11-23 22:10:00,16.4,6.6,30.77,NNE,23,2.2,4.0,65,0.00,,,0.00,WUHU216HW,2013-11-24 04:10:00,
2013-11-23 22:15:00,16.6,6.8,30.77,NNE,23,1.6,3.6,65,0.00,,,0.00,WUHU216HW,2013-11-24 04:15:00,
2013-11-23 22:20:00,16.6,6.8,30.77,NNE,23,0.4,1.6,65,0.00,,,0.00,WUHU216HW,2013-11-24 04:20:00,
2013-11-23 22:25:00,16.7,6.9,30.77,NNE,23,0.9,2.0,65,0.00,,,0.00,WUHU216HW,2013-11-24 04:25:00,
2013-11-23 22:30:00,16.6,6.8,30.77,NNE,23,1.8,2.5,65,0.00,,,0.00,WUHU216HW,2013-11-24 04:30:00,
2013-11-23 22:35:00,16.6,6.8,30.77,NNE,23,0.4,2.5,65,0.00,,,0.00,WUHU216HW,2013-11-24 04:35:00,
2013-11-23 22:40:00,16.6,6.8,30.78,NNE,23,2.0,2.5,65,0.00,,,0.00,WUHU216HW,2013-11-24 04:40:00,
2013-11-23 22:45:00,16.4,6.6,30.78,NNE,23,1.1,2.5,65,0.00,,,0.00,WUHU216HW,2013-11-24 04:45:00,
2013-11-23 22:50:00,16.4,6.9,30.78,NNE,23,1.3,2.0,66,0.00,,,0.00,WUHU216HW,2013-11-24 04:50:00,
2013-11-23 22:55:00,16.2,6.8,30.77,NNE,23,2.2,2.2,66,0.00,,,0.00,WUHU216HW,2013-11-24 04:55:00,
2013-11-23 23:00:00,16.2,6.8,30.78,NNE,23,1.1,2.5,66,0.00,,,0.00,WUHU216HW,2013-11-24 05:00:00,
2013-11-23 23:01:00,16.2,6.8,30.78,NNE,23,1.1,2.5,66,0.00,,,0.00,WUHU216HW,2013-11-24 05:01:00,
2013-11-23 23:06:00,16.2,6.8,30.78,NNE,23,1.8,2.9,66,0.00,,,0.00,WUHU216HW,2013-11-24 05:06:00,
2013-11-23 23:11:00,16.0,6.6,30.77,NNE,23,1.3,2.5,66,0.00,,,0.00,WUHU216HW,2013-11-24 05:11:00,
2013-11-23 23:16:00,15.7,6.6,30.77,NNE,23,2.5,2.9,67,0.00,,,0.00,WUHU216HW,2013-11-24 05:16:00,
2013-11-23 23:21:00,15.7,6.6,30.77,NNE,23,1.6,3.1,67,0.00,,,0.00,WUHU216HW,2013-11-24 05:21:00,
2013-11-23 23:26:00,15.7,6.6,30.77,NNE,23,1.6,3.1,67,0.00,,,0.00,WUHU216HW,2013-11-24 05:26:00,
2013-11-23 23:31:00,15.7,6.6,30.77,NNE,23,2.7,2.7,67,0.00,,,0.00,WUHU216HW,2013-11-24 05:31:00,
2013-11-23 23:36:00,15.7,6.6,30.77,NNE,23,1.8,3.6,67,0.00,,,0.00,WUHU216HW,2013-11-24 05:36:00,
2013-11-23 23:41:00,15.7,6.6,30.78,NNE,23,1.1,3.6,67,0.00,,,0.00,WUHU216HW,2013-11-24 05:41:00,
2013-11-23 23:46:00,15.7,6.6,30.77,NNE,23,0.4,2.5,67,0.00,,,0.00,WUHU216HW,2013-11-24 05:46:00,
2013-11-23 23:51:00,15.7,6.6,30.78,NNE,23,0.0,1.8,67,0.00,,,0.00,WUHU216HW,2013-11-24 05:51:00,
2013-11-23 23:56:00,15.8,6.8,30.78,NNE,23,0.2,1.8,67,0.00,,,0.00,WUHU216HW,2013-11-24 05:56:00,
2013-11-23 23:58:00,15.8,6.8,30.78,NNE,23,1.1,1.8,67,0.00,,,0.00,WUHU216HW,2013-11-24 05:58:00,